SCP
0 0 0 0 0 0 0 0 0 0 0 0 0 0 0 0 0 0 0 0 0 0
0 0 0 0 0 0 0 0 0 0 0 0 0 0 0 0 0 0 0 0 0 0
0 0 0 0 0 0 0 0 0 0 0 0 0 0 0 0 0 0 0 0 0 0
0 0 0 0 0 0 0 0 0 0 0 0 0 0 0 0 0 0 0 0 0 0
0 0 0 0 0 0 0 0 0 0 0 0 0 0 0 0 0 0 0 0 0 0
0 0 0 0 0 0 0 0 0 0 0 0 0 0 0 0 0 0 0 0 0 0
0 0 0 0 0 0 0 0 0 0 0 0 0 0 0 0 0 0 0 0 0 0
0 0 0 0 0 0 0 0 0 0 0 0 0 0 0 0 0 0 0 0 0 0
0 0 0 0 0 0 0 0 0 0 0 0 0 0 0 0 0 0 0 0 0 0
0 0 0 0 0 0 0 0 0 0 0 0 0 0 0 0 0 0 0 0 0 0
0 0 0 0 0 0 0 0 0 0 0 0 0 0 0 0 0 0 0 0 0 0
0 0 0 0 0 0 0 0 0 0 0 0 0 0 0 0 0 0 0 0 0 0
0 0 0 0 0 0 0 0 0 0 0 0 0 0 0 0 0 0 0 0 0 0
0 0 0 0 0 0 0 0 0 0 0 0 0 0 0 0 0 0 0 0 0 0
Wind_Speed_500mb
71 73 76 74 68 62 59 55 54 53 48 53 53 54 54 56 55 54 55 53 55 59
64 72 74 67 59 54 53 51 51 49 49 53 52 46 46 50 47 47 50 51 56 46
33 42 53 52 51 52 55 51 47 50 49 49 48 49 48 45 44 50 54 48 54 42
25 26 33 39 41 48 50 52 46 49 47 41 52 47 39 45 46 49 44 52 41 39
28 24 24 30 37 40 42 45 47 49 44 42 34 39 46 53 39 39 41 40 38 38
27 25 25 27 30 33 39 39 39 36 38 40 41 39 38 37 36 32 31 29 26 25
26 26 29 30 30 34 35 37 39 40 39 36 34 31 28 24 24 24 23 22 25 27
26 25 26 28 30 32 32 32 30 30 28 27 26 23 21 19 17 16 17 19 23 27
27 28 30 32 32 32 32 32 31 29 27 24 22 19 16 12 12 14 16 18 22 26
31 31 33 33 34 34 32 31 28 26 23 20 17 14 10 9 11 12 15 19 23 28
34 34 35 35 34 33 32 30 27 24 21 17 12 5 4 10 14 22 33 38 41 34
37 37 38 37 36 34 32 29 26 23 19 12 1 5 12 17 20 25 28 30 27 26
39 40 38 37 36 34 30 26 24 18 12 4 10 10 12 17 25 30 25 22 23 25
40 40 39 38 37 34 31 27 20 11 7 2 8 17 21 28 26 21 19 19 18 24
Wind_Direction_500mb
259 259 260 261 260 256 251 261 263 266 257 260 258 258 258 260 266 267 268 272 269 282
255 256 257 257 261 256 253 257 263 265 252 255 257 253 254 257 259 262 265 266 268 265
258 253 253 252 251 253 254 250 260 263 257 255 252 254 250 254 258 257 262 274 264 263
272 258 250 247 240 244 248 250 257 259 258 251 257 255 250 263 257 275 265 266 266 262
269 262 252 243 237 241 242 253 252 253 252 245 256 263 259 260 249 260 260 259 262 268
258 241 233 233 238 246 249 246 238 252 245 259 258 254 248 254 253 251 259 260 262 268
259 241 233 237 239 238 238 238 244 247 248 248 248 249 247 251 252 251 256 268 280 286
254 244 235 233 233 232 229 233 233 234 234 233 231 229 230 237 252 267 280 287 292 296
257 248 235 230 228 227 225 224 220 216 214 214 216 222 228 240 261 280 291 300 303 300
244 237 229 223 218 214 211 209 207 207 208 211 212 217 230 264 291 303 312 314 323 323
236 230 225 220 216 214 212 212 211 208 207 206 204 216 312 327 337 338 332 322 302 298
232 228 224 220 218 216 215 212 207 199 195 185 163 14 340 329 335 320 312 301 304 310
232 227 224 222 218 213 206 204 195 187 179 271 309 323 323 328 324 295 286 291 302 309
232 227 223 218 210 206 199 195 196 220 240 316 329 321 319 283 276 282 289 298 311 322
Wind_Speed_850mb
71 73 76 74 68 62 59 55 54 53 48 53 53 54 54 56 55 54 55 53 55 59
64 72 74 67 59 54 53 51 51 49 49 53 52 46 46 50 47 47 50 51 56 46
33 42 53 52 51 52 55 51 47 50 49 49 48 49 48 45 44 50 54 48 54 42
25 26 33 39 41 48 50 52 46 49 47 41 52 47 39 45 46 49 44 52 41 39
28 24 24 30 37 40 42 45 47 49 44 42 34 39 46 53 39 39 41 40 38 38
27 25 25 27 30 33 39 39 39 36 38 40 41 39 38 37 36 32 31 29 26 25
26 26 29 30 30 34 35 37 39 40 39 36 34 31 28 24 24 24 23 22 25 27
26 25 26 28 30 32 32 32 30 30 28 27 26 23 21 19 17 16 17 19 23 27
27 28 30 32 32 32 32 32 31 29 27 24 22 19 16 12 12 14 16 18 22 26
31 31 33 33 34 34 32 31 28 26 23 20 17 14 10 9 11 12 15 19 23 28
34 34 35 35 34 33 32 30 27 24 21 17 12 5 4 10 14 22 33 38 41 34
37 37 38 37 36 34 32 29 26 23 19 12 1 5 12 17 20 25 28 30 27 26
39 40 38 37 36 34 30 26 24 18 12 4 10 10 12 17 25 30 25 22 23 25
40 40 39 38 37 34 31 27 20 11 7 2 8 17 21 28 26 21 19 19 18 24
Wind_Direction_850mb
259 259 260 261 260 256 251 261 263 266 257 260 258 258 258 260 266 267 268 272 269 282
255 256 257 257 261 256 253 257 263 265 252 255 257 253 254 257 259 262 265 266 268 265
258 253 253 252 251 253 254 250 260 263 257 255 252 254 250 254 258 257 262 274 264 263
272 258 250 247 240 244 248 250 257 259 258 251 257 255 250 263 257 275 265 266 266 262
269 262 252 243 237 241 242 253 252 253 252 245 256 263 259 260 249 260 260 259 262 268
258 241 233 233 238 246 249 246 238 252 245 259 258 254 248 254 253 251 259 260 262 268
259 241 233 237 239 238 238 238 244 247 248 248 248 249 247 251 252 251 256 268 280 286
254 244 235 233 233 232 229 233 233 234 234 233 231 229 230 237 252 267 280 287 292 296
257 248 235 230 228 227 225 224 220 216 214 214 216 222 228 240 261 280 291 300 303 300
244 237 229 223 218 214 211 209 207 207 208 211 212 217 230 264 291 303 312 314 323 323
236 230 225 220 216 214 212 212 211 208 207 206 204 216 312 327 337 338 332 322 302 298
232 228 224 220 218 216 215 212 207 199 195 185 163 14 340 329 335 320 312 301 304 310
232 227 224 222 218 213 206 204 195 187 179 271 309 323 323 328 324 295 286 291 302 309
232 227 223 218 210 206 199 195 196 220 240 316 329 321 319 283 276 282 289 298 311 322